Abingdon, VA

11:01 AM EDT on August 18, 2017 (GMT -0400)
Virginia Highlands

Weather History for KVJI - March, 2014

Change the Weather History Date:

Wednesday, March 12, 2014

  Actual Average (KTRI) Record (KTRI)
Temperature  
Mean Temperature 48 °F -  
Max Temperature 63 °F 61 °F 81 °F (2016)
Min Temperature 31 °F 36 °F 14 °F (1969)
Degree Days  
Heating Degree Days 18    
Moisture  
Dew Point 39 °F    
Average Humidity 72    
Maximum Humidity 99    
Minimum Humidity 52    
Precipitation  
Precipitation 0.15 in - - ()
Sea Level Pressure  
Sea Level Pressure 29.57 in    
Wind  
Wind Speed 6 mph (NW)    
Max Wind Speed 29 mph    
Max Gust Speed 40 mph    
Visibility 8 miles    
Events Rain , Snow    
Averages and records for this station are not official NWS values.
T = Trace of Precipitation, MM = Missing Value Source: NWS Daily Summary

Daily Weather History Graph

Daily Weather History Graph

Search for Another Location

Airport or City:

Trip Planner

Search our weather history database for the weather conditions in past years. The results will help you decide how hot, cold, wet, or windy it might be!

Date:

Astronomy

Mar. 12, 2014 Rise Set
Actual Time 7:43 AM EDT 7:32 PM EDT
Civil Twilight 7:17 AM EDT 7:58 PM EDT
Nautical Twilight 6:47 AM EDT 8:28 PM EDT
Astronomical Twilight 6:17 AM EDT 8:58 PM EDT
Moon 4:06 PM EDT (3/12) 5:09 AM EDT (3/12)
Length of Visible Light 12h 40m
Length of Day
11h 49m
Waxing Gibbous, 85% of the Moon is Illuminated
Mar 12
Waxing Gibbous
Mar 16
Full
Mar 23
Last Quarter
Mar 30
New
Apr 7
First Quarter

Hourly Weather History & Observations

Time (EDT) Temp. Windchill Dew Point Humidity Pressure Visibility Wind Dir Wind Speed Gust Speed Precip Events Conditions
12:15 AM 52.3 °F - 38.1 °F 58% 29.72 in 10.0 mi Calm Calm - N/A   Clear
12:35 AM 53.8 °F - 36.7 °F 52% 29.70 in 10.0 mi NNW 3.5 mph - N/A   Clear
12:55 AM 52.7 °F - 37.6 °F 56% 29.69 in 10.0 mi Calm Calm - N/A   Clear
1:15 AM 52.7 °F - 37.8 °F 57% 29.69 in 10.0 mi Calm Calm - N/A   Clear
1:35 AM 52.3 °F - 37.4 °F 57% 29.68 in 10.0 mi Calm Calm - N/A   Clear
1:55 AM 51.8 °F - 37.6 °F 58% 29.66 in 10.0 mi Calm Calm - N/A   Scattered Clouds
2:15 AM 50.9 °F - 38.7 °F 63% 29.66 in 10.0 mi Calm Calm - N/A   Scattered Clouds
2:35 AM 51.6 °F - 37.6 °F 59% 29.65 in 10.0 mi Calm Calm - N/A   Clear
2:55 AM 50.0 °F - 38.5 °F 65% 29.63 in 10.0 mi Calm Calm - N/A   Clear
3:15 AM 50.5 °F - 37.8 °F 62% 29.61 in 10.0 mi East 5.8 mph - N/A   Clear
3:35 AM 51.1 °F - 37.4 °F 60% 29.60 in 10.0 mi ENE 3.5 mph - N/A   Clear
3:55 AM 51.3 °F - 36.9 °F 58% 29.58 in 10.0 mi Calm Calm - N/A   Clear
4:15 AM 51.4 °F - 36.7 °F 57% 29.57 in 10.0 mi Calm Calm - N/A   Scattered Clouds
4:35 AM 50.2 °F - 37.4 °F 62% 29.56 in 10.0 mi Calm Calm - N/A   Scattered Clouds
4:55 AM 50.9 °F - 37.6 °F 60% 29.56 in 10.0 mi Calm Calm - N/A   Overcast
5:15 AM 50.2 °F - 37.9 °F 63% 29.56 in 10.0 mi Calm Calm - N/A   Overcast
5:35 AM 50.9 °F - 38.8 °F 63% 29.56 in 10.0 mi Calm Calm - N/A   Overcast
5:55 AM 51.1 °F - 37.9 °F 61% 29.55 in 10.0 mi Calm Calm - N/A   Overcast
6:15 AM 50.4 °F - 39.2 °F 66% 29.53 in 10.0 mi Calm Calm - N/A   Mostly Cloudy
6:35 AM 50.4 °F - 39.4 °F 66% 29.53 in 10.0 mi Calm Calm - N/A   Mostly Cloudy
6:55 AM 52.2 °F - 39.0 °F 61% 29.52 in 10.0 mi Calm Calm - N/A   Mostly Cloudy
7:15 AM 52.0 °F - 39.4 °F 62% 29.52 in 10.0 mi Calm Calm - N/A   Mostly Cloudy
7:35 AM 51.4 °F - 40.8 °F 67% 29.51 in 10.0 mi Calm Calm - N/A   Overcast
7:55 AM 52.2 °F - 39.7 °F 63% 29.50 in 10.0 mi Calm Calm - N/A   Overcast
8:15 AM 52.5 °F - 39.9 °F 62% 29.50 in 10.0 mi West 3.5 mph - N/A Rain Light Rain
8:35 AM 53.4 °F - 43.0 °F 68% 29.50 in 10.0 mi West 4.6 mph - 0.01 in Rain Light Rain
8:55 AM 52.7 °F - 44.1 °F 72% 29.50 in 10.0 mi West 5.8 mph - 0.01 in Rain Light Rain
9:15 AM 51.8 °F - 46.6 °F 82% 29.50 in 5.0 mi WNW 4.6 mph - 0.01 in Rain Rain
9:35 AM 50.9 °F - 47.7 °F 89% 29.49 in 3.0 mi WNW 4.6 mph - 0.02 in   Light Drizzle
9:55 AM 50.9 °F - 48.6 °F 92% 29.48 in 2.5 mi NW 3.5 mph - 0.03 in   Drizzle
10:15 AM 50.9 °F - 49.5 °F 95% 29.47 in 2.5 mi West 3.5 mph - N/A Rain Rain
10:35 AM 51.3 °F - 50.2 °F 96% 29.45 in 2.0 mi Calm Calm - 0.01 in   Light Drizzle
10:55 AM 52.3 °F - 51.8 °F 98% 29.45 in 1.8 mi WSW 6.9 mph - 0.01 in Rain Rain
11:15 AM 53.4 °F - 52.7 °F 97% 29.43 in 1.8 mi WSW 6.9 mph - 0.01 in   Overcast
11:35 AM 53.8 °F - 53.2 °F 98% 29.42 in 1.5 mi West 9.2 mph - 0.01 in   Light Drizzle
11:55 AM 54.5 °F - 53.8 °F 97% 29.42 in 1.8 mi West 12.7 mph - 0.03 in Rain Light Rain
12:15 PM 55.2 °F - 54.5 °F 97% 29.42 in 2.5 mi West 15.0 mph 19.6 mph N/A   Overcast
12:35 PM 56.5 °F - 56.1 °F 99% 29.41 in 4.0 mi West 13.8 mph 19.6 mph N/A   Overcast
12:55 PM 57.7 °F - 57.0 °F 97% 29.40 in 7.0 mi West 16.1 mph 21.9 mph N/A   Overcast
1:15 PM 59.2 °F - 57.0 °F 93% 29.37 in 10.0 mi WSW 17.3 mph 21.9 mph N/A   Overcast
1:35 PM 59.9 °F - 56.8 °F 90% 29.36 in 10.0 mi West 13.8 mph 23.0 mph N/A   Overcast
2:15 PM 63.1 °F - 55.0 °F 75% 29.33 in 10.0 mi West 20.7 mph 31.1 mph N/A   Overcast
2:35 PM 59.7 °F - 53.4 °F 80% 29.35 in 4.0 mi NW 28.8 mph 40.3 mph 0.07 in Rain Light Rain
2:55 PM 59.0 °F - 51.6 °F 76% 29.37 in 10.0 mi NW 16.1 mph 40.3 mph 0.07 in   Overcast
3:15 PM 57.9 °F - 48.9 °F 72% 29.39 in 10.0 mi NW 23.0 mph 31.1 mph N/A   Overcast
3:35 PM 56.1 °F - 45.3 °F 67% 29.40 in 10.0 mi NW 23.0 mph 33.4 mph N/A   Overcast
3:55 PM 55.4 °F - 42.8 °F 63% 29.43 in 10.0 mi WNW 16.1 mph 33.4 mph N/A   Overcast
4:15 PM 54.1 °F - 42.4 °F 65% 29.45 in 10.0 mi NW 12.7 mph 20.7 mph N/A   Overcast
4:35 PM 49.5 °F - 40.3 °F 71% 29.48 in 10.0 mi NNW 16.1 mph 28.8 mph N/A   Overcast
4:55 PM 47.3 °F - 37.8 °F 69% 29.52 in 10.0 mi NW 18.4 mph 28.8 mph N/A   Overcast
5:15 PM 45.0 °F 37.4 °F 34.9 °F 68% 29.56 in 7.0 mi North 18.4 mph 38.0 mph N/A Rain Light Rain
5:35 PM 40.6 °F 30.9 °F 32.7 °F 73% 29.59 in 10.0 mi North 21.9 mph 33.4 mph N/A   Light Drizzle
5:55 PM 41.2 °F 34.1 °F 30.9 °F 67% 29.61 in 10.0 mi NW 12.7 mph 21.9 mph N/A   Overcast
6:15 PM 41.2 °F 32.4 °F 29.8 °F 64% 29.62 in 10.0 mi NNW 18.4 mph 26.5 mph N/A   Overcast
6:35 PM 41.0 °F 33.5 °F 29.5 °F 64% 29.63 in 10.0 mi NNW 13.8 mph 28.8 mph N/A   Overcast
6:55 PM 40.1 °F 31.3 °F 30.0 °F 67% 29.65 in 10.0 mi NNW 17.3 mph 21.9 mph N/A   Overcast
7:15 PM 38.1 °F 29.5 °F 30.7 °F 75% 29.67 in 5.0 mi NW 15.0 mph 26.5 mph N/A   Haze
7:35 PM 36.5 °F 28.2 °F 32.0 °F 84% 29.69 in 4.0 mi NNW 12.7 mph 18.4 mph N/A Snow Light Snow
7:55 PM 36.3 °F 25.8 °F 29.8 °F 77% 29.71 in 7.0 mi NNW 19.6 mph 25.3 mph N/A   Overcast
8:15 PM 36.1 °F 29.3 °F 29.1 °F 76% 29.71 in 10.0 mi NNW 9.2 mph - N/A Snow Light Snow
8:35 PM 36.0 °F 27.1 °F 28.8 °F 75% 29.73 in 7.0 mi North 13.8 mph 21.9 mph N/A Snow Light Snow
8:55 PM 35.6 °F 27.5 °F 28.9 °F 77% 29.73 in 7.0 mi NNW 11.5 mph 18.4 mph N/A Snow Light Snow
9:15 PM 35.6 °F 27.5 °F 28.4 °F 75% 29.73 in 7.0 mi NNW 11.5 mph 20.7 mph N/A Snow Light Snow
9:35 PM 35.1 °F 27.4 °F 28.4 °F 77% 29.74 in 7.0 mi NNW 10.4 mph - N/A Snow Light Snow
9:55 PM 34.7 °F 25.9 °F 28.6 °F 78% 29.76 in 4.0 mi NNW 12.7 mph 24.2 mph N/A Snow Light Snow
10:15 PM 33.4 °F 23.5 °F 29.5 °F 85% 29.77 in 2.5 mi NW 15.0 mph 23.0 mph N/A Snow Light Snow
10:35 PM 33.3 °F 21.5 °F 25.0 °F 72% 29.77 in 10.0 mi NW 20.7 mph 32.2 mph N/A Snow Light Snow
10:55 PM 33.1 °F 22.6 °F 24.1 °F 70% 29.78 in 10.0 mi North 16.1 mph 32.2 mph N/A   Overcast
11:15 PM 32.5 °F 20.8 °F 23.4 °F 69% 29.79 in 10.0 mi North 19.6 mph 32.2 mph N/A   Overcast
11:35 PM 32.0 °F 20.5 °F 22.8 °F 69% 29.80 in 10.0 mi NNW 18.4 mph 27.6 mph N/A   Overcast
11:55 PM 31.8 °F 22.3 °F 21.0 °F 64% 29.80 in 10.0 mi North 12.7 mph 26.5 mph N/A   Overcast